timestamp,wind_dir_avg,wind_spd_avg,wind_spd_max_dir,wind_spd_gust,battery_voltage,lat,long
2022-08-02 00:04:01+00:00,222.0,7.87,218.0,8.63,12.73,47.59359,-54.27349
2022-08-02 00:14:01+00:00,221.0,6.91,222.0,7.7,12.41,47.59359,-54.27349
2022-08-02 00:24:01+00:00,218.0,8.16,217.0,8.83,12.41,47.59359,-54.27349
2022-08-02 00:34:01+00:00,220.0,6.94,221.0,7.87,12.41,47.59359,-54.27349
2022-08-02 00:44:01+00:00,224.0,7.32,226.0,8.01,12.41,47.59359,-54.27349
2022-08-02 00:54:01+00:00,221.0,6.71,222.0,7.89,12.41,47.59359,-54.27349
2022-08-02 01:04:01+00:00,217.0,6.58,220.0,7.15,12.41,47.59359,-54.27349
2022-08-02 01:14:00+00:00,217.0,5.85,217.0,6.39,12.49,47.59359,-54.27349
2022-08-02 01:24:00+00:00,222.0,5.38,221.0,6.11,12.49,47.59359,-54.27349
2022-08-02 01:34:00+00:00,221.0,5.08,224.0,6.37,12.49,47.59359,-54.27349
2022-08-02 01:44:00+00:00,216.0,5.69,226.0,6.44,12.49,47.59359,-54.27349
2022-08-02 01:54:00+00:00,197.0,4.68,209.0,5.83,12.49,47.59359,-54.27349
2022-08-02 02:04:00+00:00,211.0,6.91,212.0,7.92,12.49,47.59359,-54.27349
2022-08-02 02:14:01+00:00,214.0,6.3,218.0,7.81,12.49,47.59359,-54.27349
2022-08-02 02:24:01+00:00,219.0,5.24,224.0,5.87,12.49,47.59359,-54.27349
2022-08-02 02:34:01+00:00,215.0,5.67,214.0,6.21,12.49,47.59359,-54.27349
2022-08-02 02:44:01+00:00,218.0,5.9,221.0,6.52,12.49,47.59359,-54.27349
2022-08-02 02:54:01+00:00,224.0,5.15,226.0,5.87,12.49,47.59359,-54.27349
2022-08-02 03:04:01+00:00,221.0,4.36,227.0,4.94,12.49,47.59359,-54.27349
2022-08-02 03:14:01+00:00,189.0,3.69,194.0,4.09,12.49,47.59359,-54.27349
2022-08-02 03:24:01+00:00,193.0,5.13,209.0,6.01,12.49,47.59359,-54.27349
2022-08-02 03:34:01+00:00,209.0,5.07,218.0,6.41,12.49,47.59359,-54.27349
2022-08-02 03:44:01+00:00,219.0,4.75,216.0,5.56,12.49,47.59359,-54.27349
2022-08-02 03:54:01+00:00,215.0,4.5,232.0,5.97,12.49,47.59359,-54.27349
2022-08-02 04:04:01+00:00,222.0,5.13,225.0,6.17,12.49,47.59359,-54.27349
2022-08-02 04:14:00+00:00,223.0,5.04,230.0,5.71,12.41,47.59359,-54.27349
2022-08-02 04:24:00+00:00,221.0,4.89,232.0,5.75,12.41,47.59359,-54.27349
2022-08-02 04:34:00+00:00,217.0,5.01,222.0,5.63,12.41,47.59359,-54.27349
2022-08-02 04:44:00+00:00,221.0,4.31,221.0,4.66,12.41,47.59359,-54.27349
2022-08-02 04:54:00+00:00,224.0,4.29,234.0,5.37,12.41,47.59359,-54.27349
2022-08-02 05:04:00+00:00,227.0,4.35,231.0,4.68,12.41,47.59359,-54.27349
2022-08-02 05:14:00+00:00,219.0,4.61,223.0,5.26,12.41,47.59359,-54.27349
2022-08-02 05:24:00+00:00,215.0,5.89,215.0,6.63,12.41,47.59359,-54.27349
2022-08-02 05:34:00+00:00,227.0,5.49,224.0,5.97,12.41,47.59359,-54.27349
2022-08-02 05:44:00+00:00,230.0,4.76,234.0,5.31,12.41,47.59359,-54.27349
2022-08-02 05:54:00+00:00,227.0,6.0,226.0,6.81,12.41,47.59359,-54.27349
2022-08-02 06:04:00+00:00,224.0,6.5,226.0,7.08,12.41,47.59359,-54.27349
2022-08-02 06:14:00+00:00,217.0,7.43,219.0,7.88,12.41,47.59359,-54.27349
2022-08-02 06:24:00+00:00,223.0,7.33,221.0,8.11,12.41,47.59359,-54.27349
2022-08-02 06:34:00+00:00,215.0,6.09,216.0,7.39,12.41,47.59359,-54.27349
2022-08-02 06:44:00+00:00,224.0,7.0,224.0,7.82,12.41,47.59359,-54.27349
2022-08-02 06:54:00+00:00,211.0,6.73,211.0,7.84,12.41,47.59359,-54.27349
2022-08-02 07:04:00+00:00,209.0,7.21,211.0,8.12,12.41,47.59359,-54.27349
2022-08-02 07:14:00+00:00,215.0,5.3,215.0,5.89,12.41,47.59359,-54.27349
2022-08-02 07:24:00+00:00,206.0,6.1,211.0,6.66,12.41,47.59359,-54.27349
2022-08-02 07:34:00+00:00,206.0,6.23,217.0,7.31,12.41,47.59359,-54.27349
2022-08-02 07:44:00+00:00,213.0,5.13,214.0,5.71,12.41,47.59359,-54.27349
2022-08-02 07:54:00+00:00,210.0,3.89,210.0,4.33,12.41,47.59359,-54.27349
2022-08-02 08:04:00+00:00,200.0,3.53,203.0,3.95,12.41,47.59359,-54.27349
2022-08-02 08:14:01+00:00,194.0,2.92,196.0,3.37,12.33,47.59359,-54.27349
2022-08-02 08:24:01+00:00,205.0,3.23,221.0,4.2,12.33,47.59359,-54.27349
2022-08-02 08:34:01+00:00,200.0,4.24,215.0,4.74,12.33,47.59359,-54.27349
2022-08-02 08:44:01+00:00,218.0,3.87,216.0,4.56,12.33,47.59359,-54.27349
2022-08-02 08:54:01+00:00,222.0,4.02,227.0,4.49,12.33,47.59359,-54.27349
2022-08-02 09:04:01+00:00,219.0,4.38,219.0,5.08,12.33,47.59359,-54.27349
2022-08-02 09:14:01+00:00,225.0,3.52,224.0,3.82,12.41,47.59359,-54.27349
2022-08-02 09:24:01+00:00,227.0,3.7,233.0,4.35,12.41,47.59359,-54.27349
2022-08-02 09:34:01+00:00,224.0,3.97,222.0,5.14,12.41,47.59359,-54.27349
2022-08-02 09:44:01+00:00,221.0,4.93,220.0,5.53,12.41,47.59359,-54.27349
2022-08-02 09:54:01+00:00,219.0,5.51,223.0,6.37,12.41,47.59359,-54.27349
2022-08-02 10:04:01+00:00,213.0,5.15,215.0,5.79,12.41,47.59359,-54.27349
2022-08-02 10:14:00+00:00,221.0,4.87,219.0,5.44,12.89,47.59359,-54.27349
2022-08-02 10:24:00+00:00,221.0,5.13,223.0,5.68,12.89,47.59359,-54.27349
2022-08-02 10:34:00+00:00,220.0,4.85,221.0,5.19,12.89,47.59359,-54.27349
2022-08-02 10:44:00+00:00,223.0,5.24,223.0,6.01,12.89,47.59359,-54.27349
2022-08-02 10:54:00+00:00,209.0,4.04,212.0,4.49,12.89,47.59359,-54.27349
2022-08-02 11:04:00+00:00,209.0,3.14,213.0,3.64,12.89,47.59359,-54.27349
2022-08-02 11:14:00+00:00,214.0,4.34,214.0,4.8,13.68,47.59359,-54.27349
2022-08-02 11:24:00+00:00,215.0,2.82,212.0,3.33,13.68,47.59359,-54.27349
2022-08-02 11:34:00+00:00,193.0,2.56,196.0,2.94,13.68,47.59359,-54.27349
2022-08-02 11:44:00+00:00,200.0,3.07,198.0,3.73,13.68,47.59359,-54.27349
2022-08-02 11:54:00+00:00,204.0,4.1,204.0,4.51,13.68,47.59359,-54.27349
2022-08-02 12:04:00+00:00,198.0,4.13,198.0,4.51,13.68,47.59359,-54.27349
2022-08-02 12:14:01+00:00,196.0,4.15,196.0,4.4,13.76,47.59359,-54.27349
2022-08-02 12:24:01+00:00,203.0,3.16,208.0,3.51,13.76,47.59359,-54.27349
2022-08-02 12:34:01+00:00,202.0,4.05,202.0,4.38,13.76,47.59359,-54.27349
2022-08-02 12:44:01+00:00,197.0,5.23,196.0,5.72,13.76,47.59359,-54.27349
2022-08-02 12:54:01+00:00,193.0,5.06,193.0,5.47,13.76,47.59359,-54.27349
2022-08-02 13:04:01+00:00,192.0,4.62,190.0,5.71,13.76,47.59359,-54.27349
2022-08-02 13:14:00+00:00,215.0,7.34,220.0,8.14,13.84,47.59359,-54.27349
2022-08-02 13:24:00+00:00,215.0,7.71,212.0,8.51,13.84,47.59359,-54.27349
2022-08-02 13:34:00+00:00,206.0,7.58,207.0,8.43,13.84,47.59359,-54.27349
2022-08-02 13:44:00+00:00,219.0,7.13,220.0,8.29,13.84,47.59359,-54.27349
2022-08-02 13:54:00+00:00,216.0,6.52,218.0,7.8,13.84,47.59359,-54.27349
2022-08-02 14:04:00+00:00,215.0,7.91,216.0,8.75,13.84,47.59359,-54.27349
2022-08-02 14:14:00+00:00,215.0,9.77,217.0,11.4,13.6,47.59359,-54.27349
2022-08-02 14:24:00+00:00,210.0,9.33,214.0,10.54,13.6,47.59359,-54.27349
2022-08-02 14:34:00+00:00,216.0,8.68,218.0,9.47,13.6,47.59359,-54.27349
2022-08-02 14:44:00+00:00,209.0,6.08,216.0,6.9,13.6,47.59359,-54.27349
2022-08-02 14:54:00+00:00,208.0,8.4,205.0,9.04,13.6,47.59359,-54.27349
2022-08-02 15:04:00+00:00,215.0,7.67,213.0,8.38,13.6,47.59359,-54.27349
2022-08-02 15:14:00+00:00,213.0,8.27,219.0,9.27,14.16,47.59359,-54.27349
2022-08-02 15:24:00+00:00,214.0,8.7,217.0,9.8,14.16,47.59359,-54.27349
2022-08-02 15:34:00+00:00,214.0,8.75,218.0,9.92,14.16,47.59359,-54.27349
2022-08-02 15:44:00+00:00,213.0,8.39,213.0,9.29,14.16,47.59359,-54.27349
2022-08-02 15:54:00+00:00,203.0,7.92,206.0,8.54,14.16,47.59359,-54.27349
2022-08-02 16:04:00+00:00,204.0,8.16,206.0,8.65,14.16,47.59359,-54.27349
2022-08-02 16:14:00+00:00,213.0,7.18,211.0,7.82,14.32,47.59359,-54.27349
2022-08-02 16:24:00+00:00,208.0,7.7,211.0,8.79,14.32,47.59359,-54.27349
2022-08-02 16:34:00+00:00,210.0,8.32,211.0,8.82,14.32,47.59359,-54.27349
2022-08-02 16:44:00+00:00,220.0,8.15,226.0,9.11,14.32,47.59359,-54.27349
2022-08-02 16:54:00+00:00,214.0,8.62,215.0,9.32,14.32,47.59359,-54.27349
2022-08-02 17:04:00+00:00,218.0,9.65,218.0,10.17,14.32,47.59359,-54.27349
2022-08-02 17:14:00+00:00,219.0,9.03,216.0,9.67,14.0,47.59359,-54.27349
2022-08-02 17:24:00+00:00,215.0,8.68,218.0,9.49,14.0,47.59359,-54.27349
2022-08-02 17:34:00+00:00,219.0,9.24,217.0,10.14,14.0,47.59359,-54.27349
2022-08-02 17:44:00+00:00,222.0,8.31,222.0,9.18,14.0,47.59359,-54.27349
2022-08-02 17:54:00+00:00,220.0,8.8,219.0,10.21,14.0,47.59359,-54.27349
2022-08-02 18:04:00+00:00,223.0,8.11,229.0,9.01,14.0,47.59359,-54.27349
2022-08-02 18:14:01+00:00,222.0,8.36,224.0,9.71,13.84,47.59359,-54.27349
2022-08-02 18:24:01+00:00,219.0,7.92,225.0,8.87,13.84,47.59359,-54.27349
2022-08-02 18:34:01+00:00,223.0,8.17,226.0,9.23,13.84,47.59359,-54.27349
2022-08-02 18:44:01+00:00,217.0,8.9,217.0,10.67,13.84,47.59359,-54.27349
2022-08-02 18:54:01+00:00,215.0,9.37,218.0,10.79,13.84,47.59359,-54.27349
2022-08-02 19:04:01+00:00,216.0,8.07,215.0,9.91,13.84,47.59359,-54.27349
2022-08-02 19:14:00+00:00,218.0,8.5,220.0,9.59,13.68,47.59359,-54.27349
2022-08-02 19:24:00+00:00,225.0,9.12,228.0,10.38,13.68,47.59359,-54.27349
2022-08-02 19:34:00+00:00,217.0,8.98,219.0,10.03,13.68,47.59359,-54.27349
2022-08-02 19:44:00+00:00,219.0,9.14,215.0,10.51,13.68,47.59359,-54.27349
2022-08-02 19:54:00+00:00,221.0,8.45,227.0,9.76,13.68,47.59359,-54.27349
2022-08-02 20:04:00+00:00,225.0,9.33,226.0,10.51,13.68,47.59359,-54.27349
2022-08-02 20:14:00+00:00,214.0,9.57,214.0,10.85,13.53,47.59359,-54.27349
2022-08-02 20:24:00+00:00,231.0,8.08,232.0,9.86,13.53,47.59359,-54.27349
2022-08-02 20:34:00+00:00,229.0,7.71,227.0,8.85,13.53,47.59359,-54.27349
2022-08-02 20:44:00+00:00,224.0,8.57,222.0,9.79,13.53,47.59359,-54.27349
2022-08-02 20:54:00+00:00,223.0,8.74,224.0,10.25,13.53,47.59359,-54.27349
2022-08-02 21:04:00+00:00,216.0,8.8,218.0,9.83,13.53,47.59359,-54.27349
2022-08-02 21:14:01+00:00,219.0,9.19,219.0,10.25,13.44,47.59359,-54.27349
2022-08-02 21:24:01+00:00,210.0,9.83,208.0,11.02,13.44,47.59359,-54.27349
2022-08-02 21:34:01+00:00,220.0,9.17,218.0,10.53,13.44,47.59359,-54.27349
2022-08-02 21:44:01+00:00,220.0,8.76,222.0,10.19,13.44,47.59359,-54.27349
2022-08-02 21:54:01+00:00,218.0,8.41,209.0,9.79,13.44,47.59359,-54.27349
2022-08-02 22:04:01+00:00,217.0,9.49,221.0,10.79,13.44,47.59359,-54.27349
2022-08-02 22:14:01+00:00,218.0,10.39,220.0,11.26,13.13,47.59359,-54.27349
2022-08-02 22:24:01+00:00,223.0,10.23,221.0,11.15,13.13,47.59359,-54.27349
2022-08-02 22:34:01+00:00,224.0,10.27,223.0,11.42,13.13,47.59359,-54.27349
2022-08-02 22:44:01+00:00,221.0,10.74,222.0,11.94,13.13,47.59359,-54.27349
2022-08-02 22:54:01+00:00,218.0,8.89,218.0,10.4,13.13,47.59359,-54.27349
2022-08-02 23:04:01+00:00,220.0,8.69,221.0,9.77,13.13,47.59359,-54.27349
2022-08-02 23:14:01+00:00,224.0,7.87,224.0,9.02,12.65,47.59359,-54.27349
2022-08-02 23:24:01+00:00,214.0,6.54,218.0,7.44,12.65,47.59359,-54.27349
2022-08-02 23:34:01+00:00,211.0,5.94,209.0,6.69,12.65,47.59359,-54.27349
2022-08-02 23:44:01+00:00,214.0,6.75,214.0,7.59,12.65,47.59359,-54.27349
2022-08-02 23:54:01+00:00,213.0,7.41,216.0,8.63,12.65,47.59359,-54.27349
